www.pogodaiklimat.ru

Погода и климат >> Архив погоды >> Новая Зеландия >> Остров Эндерби


ПОГОДА на Острове Эндерби

  • Прогноз погоды на Острове Эндерби
  • Монитор погоды на Острове Эндерби

АРХИВ ПОГОДЫ на Острове Эндерби

Время (UTC), дата Ветер
(напр.,м/с)
 
Видим.   Явления Облачность Т
(С)
Тd
(С)
f
(%)
Тe
(С)
Тes
(С)
Комфортность P
(гПа)
Po
(гПа)
Тmin
(С)
Tmax
(С)
R
(мм)
R24
(мм)
S
(см)
00 14.06 ЮЗ 7 н/о н/о +8.8 +8.6 99 +4 +4 1000.4 995.7 +9.5
03 14.06 СЗ 8 н/о н/о +9.0 +7.0 87 +4 +4 1002.9 998.2
06 14.06 СЗ 8 н/о н/о +9.1 +8.1 93 +5 +5 1003.7 999.0
09 14.06 СЗ 9 н/о н/о +9.4 +8.5 94 +5 +5 1004.0 999.3
12 14.06 СЗ 8 н/о н/о +9.0 +7.5 90 +5 +5 1004.9 1000.1 +10.4
15 14.06 СЗ 7 н/о н/о +8.6 +7.0 90 +4 +4 1004.8 1000.0
18 14.06 СЗ 8 н/о н/о +8.3 +5.4 82 +4 +4 1004.4 999.6
21 14.06 СЗ 8 н/о н/о +8.5 +6.1 85 +4 +4 1004.3 999.5
00 15.06 С 8 н/о н/о +10.2 +7.3 82 +6 +6 1002.9 998.2 +8.1
03 15.06 С 10 н/о н/о +10.1 +8.7 91 +5 +5 999.8 995.1
06 15.06 З 7 н/о н/о +6.5 +6.0 97 +1 +1 999.9 995.1 8
09 15.06 З 3 н/о н/о +6.4 +5.2 92 +3 +3 999.7 994.9
12 15.06 З 8 н/о н/о +5.3 +3.1 86 -0 -0 999.8 995.0 +10.4 0.8
15 15.06 З 7 н/о н/о +5.0 +0.6 73 -0 -0 999.4 994.6
18 15.06 З 7 н/о н/о +4.1 +2.3 88 -2 -2 998.8 994.0 0.6
21 15.06 З 1 н/о н/о +2.6 +1.4 92 +1 +1 998.9 994.1
00 16.06 ЮЗ 3 н/о н/о +5.4 +3.6 88 +2 +2 998.7 993.9 +2.5 10
03 16.06 ЮЗ 6 н/о н/о +4.5 +1.3 80 -1 -1 999.0 994.2
06 16.06 ЮЗ 5 н/о н/о +3.7 +2.1 89 -1 -1 1000.6 995.8 0.6
09 16.06 ЮЗ 5 н/о н/о +3.9 +2.1 88 -1 -1 1002.2 997.4
12 16.06 ЮЗ 5 н/о н/о +4.7 +3.3 91 -0 -0 1004.1 999.3 +6.5 0.6
15 16.06 Ю 10 н/о н/о +6.0 +3.8 86 -0 -0 1005.8 1001.0
18 16.06 Ю 9 н/о н/о +6.0 +5.1 94 0 0 1009.0 1004.2 2
21 16.06 ЮЗ 6 н/о н/о +5.9 +4.0 88 +1 +1 1012.2 1007.4
00 17.06 ЮЗ 6 н/о н/о +6.6 +4.1 84 +2 +2 1014.0 1009.2 +2.8 4
03 17.06 ЮЗ 6 н/о н/о +5.8 +2.9 82 +1 +1 1015.0 1010.1
06 17.06 ЮЗ 4 н/о н/о +4.1 +1.2 81 -0 -0 1016.5 1011.6
09 17.06 ЮЗ 4 н/о н/о +5.5 +3.8 89 +1 +1 1017.0 1012.1
12 17.06 З 9 н/о н/о +7.1 +6.7 97 +2 +2 1016.3 1011.5 +7.3
15 17.06 З 10 н/о н/о +7.2 +6.8 97 +1 +1 1016.4 1011.6
18 17.06 З 7 н/о н/о +7.5 +6.9 96 +3 +3 1016.5 1011.7 1
21 17.06 СЗ 8 н/о н/о +8.3 +7.7 96 +3 +3 1016.5 1011.7
00 18.06 СЗ 10 н/о н/о +8.9 +8.1 95 +4 +4 1016.4 1011.6 +3.4 2
03 18.06 СЗ 8 н/о н/о +9.7 +8.5 92 +5 +5 1015.6 1010.8
06 18.06 СЗ 7 н/о н/о +9.1 +8.2 94 +5 +5 1015.8 1011.0
09 18.06 СЗ 10 н/о н/о +9.6 +7.9 89 +5 +5 1015.2 1010.4
12 18.06 СЗ 11 н/о н/о +9.9 +8.7 92 +5 +5 1014.7 1009.9 +10.0
15 18.06 СЗ 12 н/о н/о +9.9 +8.9 93 +5 +5 1014.5 1009.7
18 18.06 СЗ 11 н/о н/о +9.7 +9.2 97 +5 +5 1014.4 1009.6 0.4
21 18.06 СЗ 10 н/о н/о +9.3 +8.5 95 +4 +4 1015.9 1011.1
00 19.06 СЗ 7 н/о н/о +9.7 +9.1 96 +6 +6 1016.6 1011.8 +8.9 0.4
03 19.06 СЗ 7 н/о н/о +9.9 +9.6 98 +6 +6 1016.0 1011.2
06 19.06 СЗ 11 н/о н/о +9.5 +9.2 98 +4 +4 1015.4 1010.6 2
09 19.06 СЗ 11 н/о н/о +9.5 +9.1 97 +4 +4 1015.5 1010.7
12 19.06 СЗ 8 н/о н/о +9.7 +9.1 96 +5 +5 1016.0 1011.2 +10.1 2
15 19.06 СЗ 6 н/о н/о +9.5 +8.8 95 +6 +6 1015.9 1011.1
18 19.06 Ю 4 н/о н/о +8.0 +7.7 98 +4 +4 1016.4 1011.6 0.2
21 19.06 ЮВ 5 н/о н/о +7.6 +7.5 99 +3 +3 1016.9 1012.1
00 20.06 ЮВ 4 н/о н/о +8.4 +8.3 99 +5 +5 1017.1 1012.3 +7.5 9
03 20.06 ЮВ 5 н/о н/о +8.4 +8.1 98 +5 +5 1015.9 1011.1
06 20.06 ЮВ 4 н/о н/о +7.7 +7.5 99 +4 +4 1014.9 1010.1
09 20.06 В 5 н/о н/о +8.2 +8.0 99 +4 +4 1014.1 1009.3
12 20.06 В 6 н/о н/о +7.4 +6.7 95 +3 +3 1011.9 1007.1 +9.7
15 20.06 В 6 н/о н/о +7.3 +6.0 91 +3 +3 1009.5 1004.7
18 20.06 В 6 н/о н/о +7.3 +6.0 91 +3 +3 1007.4 1002.6

 

Местоположение метеостанции Остров Эндерби (Новая Зеландия): широта -50.48 долгота 166.30 высота над уровнем моря 40 м.

В архиве по умолчанию представлена погода на Острове Эндерби за последнюю неделю. Архивные данные за месяц целиком и за предыдущие месяцы, начиная с января 2011 года, Вы можете получить, выбрав интересующий диапазон дат из раскрывающегося списка и нажав кнопку "Ввод!".


*Определитесь, кто Вы:
робот инопланетянин человек

Внимание! Время в таблицах - всемирное. Для получения местного времени необходимо прибавить поправку, которая равна 12 ч.

Смотрите также архив погоды в соседних городах и на ближайших метеорологических станциях:

Погода на Острове Кэмпбелл (Новая Зеландия) (303 км)
Погода на Мысе Юго-западный (Новая Зеландия) (368 км)
Погода в Инверкаргилле (Новая Зеландия) (477 км)
Погода на Маяке Puysegur Point (Новая Зеландия) (481 км)
Погода в Данидине (Новая Зеландия) (584 км)
Погода на Острове Секретари (Новая Зеландия) (588 км)
Погода в Квинстауне (Новая Зеландия) (635 км)
Погода на Острове Маккуори (Тасмания, Австралия) (668 км)
Погода в Тара Хилс (Новая Зеландия) (714 км)
Погода в Хаасте (Новая Зеландия) (764 км)

Пояснения к столбцам:

Ветер - указаны скорость ветра в м/с - средняя за 10 мин, порывы в срок и между сроками (в фигурных скобках) и направление, откуда дует ветер: С - северный, СВ - северо-восточный, В - восточный, ЮВ - юго-восточный, Ю - южный, ЮЗ - юго-западный, З - западный, СЗ - северо-западный.
Видимость - горизонтальная дальность видимости в метрах или километрах. При видимости от 1 до 10 км при отсутствии осадков обычно наблюдается дымка, при ухудшении видимости до 1 км и менее - туман. В сухую погоду видимость может ухудшаться дымом, пылью или мглою.
Явления - указаны атмосферные явления, наблюдавшиеся в срок или в последний час перед сроком; фигурными скобками обозначены явления, наблюдавшиеся между сроками (за 1-3 часа до срока); квадратными скобками обозначены град или гололедные отложения с указанием их диаметра в мм.
Облачность - указаны через наклонную черту общая и нижняя облачность в баллах и высота нижней границы облаков в метрах; квадратными скобками обозначены формы облаков: Ci - перистые, Cs - перисто-слоистые, Cc - перисто-кучевые, Ac - высококучевые, As - высокослоистые, Sc - слоисто-кучевые, Ns - слоисто-дождевые, Cu - кучевые, Cb - кучево-дождевые. Подробнее классификацию облаков см. в Атласе облаков (PDF).
T - Температура воздуха - температура, измеренная на высоте 2 м над землей.
Td - Температура точки росы - температура, при понижении до которой содержащийся в воздухе водяной пар достигнет насыщения.
f - Относительная влажность воздуха - влажноcть воздуха, измеренная на высоте 2 м над землей.
Te - Эффективная температура - температура, которую ощущает одетый по сезону человек в тени. Характеристика душности погоды. При расчете учитывается влияние влажности воздуха и скорости ветра на теплоощущения человека.
Tes - Эффективная температура на солнце - температура, которую ощущает человек, с поправкой на солнечный нагрев. Характеристика знойности погоды. Зависит от высоты солнца над горизонтом, облачности и скорости ветра. Ночью, в пасмурную погоду, а также при ветре 12 м/с и более поправка равна нулю.
P - Атмосферное давление - приведенное к уровню моря атмосферное давление.
Po - Атмосферное давление - измеренное на уровне метеостанции атмосферное давление.
Tmin - Минимальная температура - минимум температуры воздуха на высоте 2 м над землей.
Tmax - Максимальная температура - максимум температуры воздуха на высоте 2 м над землей.
R - Количество осадков - Количество выпавших осадков за период времени, мм. При наведении курсора мыши на число - период времени, за который выпало указанное количество осадков.
R24 - Количество осадков - Количество выпавших осадков за 24 часа, мм.
S - Снежный покров - Высота снежного покрова, см. При наведении курсора мыши на число - состояние снежного покрова и степень покрытия местности в баллах.